Vertical_Velocity
4 -16 38 12 6 -3 -9 11 3 2 0 -2 6 32 24 10 4 -7 -6 8 -2 -0 -3 -27 -9 3 17 3 -5 5 10 9 6 6 4 -3 1 1 3 0 -2 -3 2 -1 4 4 7 -0 7 8 3 5 -2 3
5 -6 18 24 21 1 -3 19 27 23 22 24 17 16 15 11 2 7 -11 11 -23 -6 8 15 10 6 23 16 -2 7 -4 -4 -5 5 2 -1 0 2 -1 1 3 5 6 7 8 9 2 2 -1 -1 -1 -4 3 -5
8 -2 -3 8 16 8 10 15 6 7 6 4 1 -1 -1 -1 4 -34 -4 -14 11 -15 14 -6 1 -2 -0 -1 -1 -5 2 1 -5 6 -2 -1 -2 1 1 1 -1 2 -1 2 7 8 1 -0 1 1 2 -1 1 1
1 3 -2 7 -3 6 6 3 7 3 0 -8 -2 -5 -9 -2 4 16 -7 10 -10 -11 -9 9 8 -3 -2 -3 -4 -0 -2 -9 -1 1 -2 -0 -0 1 -1 3 1 2 2 -2 3 4 3 3 3 -1 2 -1 -2 1
-3 1 2 -4 -3 -1 5 -4 -7 -8 -7 -6 -7 -4 -2 1 7 -5 4 8 2 -11 -9 7 0 4 1 -2 -3 -4 -2 -5 1 2 -0 0 -0 1 0 3 1 -2 -1 0 3 -6 -0 -5 -1 0 -2 -2 -0 -3
4 5 5 4 5 4 3 6 8 3 2 4 1 2 9 14 15 -14 -18 15 7 -29 -24 -0 0 2 -1 -1 1 3 -1 -1 0 2 -0 2 -3 2 1 1 2 -1 -2 -1 -2 -0 -4 -4 -2 1 -4 -2 1 -2
-0 1 1 2 2 1 3 3 3 4 4 3 6 9 9 4 -1 -3 -2 -9 11 -13 -15 4 4 7 1 -2 1 -1 -3 -2 10 -1 1 -1 2 -2 1 1 2 1 -3 2 3 -9 7 1 -4 -0 -0 2 -1 -1
-3 -1 -0 1 1 1 1 2 3 4 4 4 3 4 1 1 -6 -6 2 -0 -3 -5 -6 -2 6 1 -1 4 1 -6 1 1 -3 3 -1 1 2 1 2 2 0 0 -0 3 1 4 -9 2 -0 0 1 1 2 1
1 1 2 1 1 1 2 2 1 2 3 1 0 -1 -6 -18 -8 3 4 -4 -7 -1 -3 -2 -5 1 -7 4 -3 -1 2 0 -4 0 2 2 0 1 1 -3 -1 -2 -6 -6 -0 2 2 -2 0 -2 -1 3 -1 -0
-1 3 0 -5 -1 3 0 -3 -2 3 2 1 -8 -10 -6 -3 3 -1 -5 -4 -5 -3 -6 -2 -1 0 -1 -1 2 -2 0 -1 1 2 -2 2 2 0 -0 -1 -1 -2 2 -3 2 8 5 4 -0 -1 -2 0 -0 -1
-3 -1 1 1 -1 -0 -3 -2 -4 -5 -2 -5 -5 -1 1 2 0 -1 -2 -3 2 1 -1 2 -11 -5 5 1 -1 -1 -0 0 2 5 3 0 2 1 -0 0 -1 1 -1 -0 0 -2 2 -2 -1 -1 2 3 1 -0
-3 -2 -2 -1 0 -3 -4 -4 -3 -4 -6 -1 -16 -1 -3 -3 -2 -6 1 0 0 3 5 -2 7 -2 1 -1 -3 1 -1 2 1 0 2 0 5 0 -1 2 1 0 -1 2 -1 -1 1 1 -1 -1 1 2 1 -1
-0 2 4 5 2 -1 -2 1 2 -2 -3 -2 -6 -7 -0 1 -2 -1 1 3 1 1 0 1 3 -4 -1 3 -1 -1 0 2 1 1 -1 3 2 1 0 1 2 0 -1 -1 3 1 1 1 4 0 -0 -3 -0 -1
-3 -4 -3 -1 -2 -2 -1 -1 -4 -5 -3 -5 -2 -2 0 1 1 2 2 1 0 -1 2 1 -0 -2 -1 -3 0 -1 2 3 2 1 1 3 -2 2 -2 -3 1 4 0 1 -1 -0 1 -2 -1 -3 -0 1 -1 -5
-1 -1 1 0 -1 -2 -1 -3 -4 -4 -4 -4 -5 1 -0 4 0 0 -1 -2 8 -2 -6 0 -1 -5 1 -2 -0 1 2 0 -1 1 2 2 1 -2 -0 0 -1 -3 -1 -1 -1 -2 -1 -1 0 -1 0 0 -3 -1
-3 -4 -9 -3 -2 -2 -2 -2 -3 -5 -4 -4 -5 -1 2 -5 5 1 1 0 2 -4 -3 -3 -0 -2 0 -1 1 -1 1 -0 4 1 1 -0 2 1 -0 0 -0 -0 -0 -1 -1 1 1 0 1 -0 -1 -1 -1 2
-1 -8 -3 -2 -0 -3 -4 -6 -2 -7 -1 -2 -0 0 6 -1 2 -0 4 3 -1 0 -0 -0 -2 2 1 0 1 0 2 2 1 1 1 -0 -0 2 1 1 1 1 -0 -1 -2 -0 0 -1 0 1 -1 -1 2 0
-9 1 0 -1 -2 -1 -9 -7 -3 -2 -1 2 -2 4 -0 2 1 0 4 -0 2 -1 -1 2 -1 -0 -0 -0 3 2 0 0 0 1 1 0 1 1 1 0 1 1 1 1 1 -1 -1 0 -0 2 1 -0 -0 0
-5 -2 -1 -4 -5 -5 -3 -4 -1 -2 3 2 3 -1 -2 1 3 1 -0 -0 -1 -0 0 -1 0 0 1 2 -0 0 -0 0 0 1 -1 -0 1 1 -0 1 1 0 0 0 -0 0 1 3 1 -1 -0 1 -1 -2
-4 -1 -4 -5 -8 -3 -4 -3 -2 -2 1 1 1 -1 -3 0 -1 -2 -0 -1 -1 -1 -1 -0 2 3 2 2 1 1 0 -1 -1 1 1 -0 -0 -0 0 -0 0 -1 0 1 2 0 0 1 2 1 -1 -1 1 2
-3 -3 -6 -3 -7 -6 -1 3 -1 -0 -1 -1 -1 0 0 -1 -1 -1 -1 -4 -2 1 1 1 -1 -0 -0 -1 -0 -0 -1 2 2 2 1 0 -0 -0 -1 0 -1 0 -1 0 -1 1 1 1 -0 2 -0 -1 2 -1
-2 -2 -3 -4 -4 -1 -2 -5 2 -3 1 -1 -0 -2 0 -0 0 -0 -1 -0 1 2 -1 3 1 1 0 0 0 -1 -0 0 -1 -0 -0 0 -1 0 1 -1 -1 -1 -1 -1 -0 -2 -0 0 0 -1 0 2 1 -1
-4 -3 -2 -1 -3 -3 1 -1 0 -0 -1 2 -1 -0 1 0 1 -4 -0 -1 0 -2 0 1 -0 -0 -1 0 -0 -0 1 1 2 1 0 2 2 0 2 -1 1 -1 1 -0 2 -3 1 3 -0 1 1 -1 0 -1
-4 -4 -4 -2 -2 2 -3 -0 -1 -1 -1 -0 -0 0 0 1 -2 0 -1 2 2 -1 1 0 0 -0 -1 -1 1 1 0 0 -0 -1 0 -0 0 1 1 0 2 1 3 0 1 1 2 -1 1 2 -1 0 0 0
-1 -1 -2 1 -0 -1 -1 0 0 -1 0 0 -0 1 1 -1 1 0 -1 3 2 -1 -1 0 -1 -1 -0 -1 -1 -1 -1 -1 1 2 0 1 2 -0 1 1 2 1 1 -2 -0 -0 -2 2 1 1 1 3 1 1
-1 -1 0 1 0 -1 1 -0 0 0 -0 0 0 1 -2 1 1 -1 1 -0 3 1 1 -1 -1 0 -0 -0 3 0 -0 0 0 1 0 1 1 1 0 -1 -0 0 -0 4 1 -0 2 -1 1 0 3 2 2 -1
0 1 2 -2 0 -1 -0 -1 -1 0 -0 -0 -0 1 1 1 -1 2 0 0 2 -1 -1 -1 -1 -1 3 1 -0 1 -1 -1 -1 -2 -1 -0 0 1 2 2 3 0 -1 1 1 2 -2 1 2 3 -1 0 -0 -1
2 -0 1 0 -1 -1 0 -0 0 -1 -1 0 0 0 -0 -0 3 0 -1 -0 -0 -1 -1 -1 -1 0 1 -1 -0 0 -0 -0 0 0 0 -0 0 1 1 -0 0 1 0 2 2 2 1 2 0 -0 1 -1 -2 -0
0 -2 -0 0 0 0 -1 -0 -1 2 -0 0 1 0 1 -0 -1 -1 -1 -1 -0 -0 -0 -0 -0 0 -1 -1 -0 -0 -0 1 1 -0 2 1 0 1 1 1 0 0 -0 -1 1 2 2 2 1 -1 -1 -1 -1 -0
0 -3 1 -0 1 -1 3 0 3 -3 -1 -2 -2 -1 -0 -1 -1 1 0 0 0 -0 -2 -1 -2 -1 -0 1 -0 0 -1 -1 -1 2 2 3 -3 0 1 1 -0 -0 -0 -1 -2 -2 0 1 1 -0 -1 -1 -1 -1
-1 -1 1 0 -0 1 -1 -2 -1 -1 -1 -1 -1 -1 4 -0 -2 -1 1 0 1 1 1 0 -0 -1 -1 0 -0 -0 0 0 -0 0 -0 1 0 -0 -1 -1 -0 0 1 2 1 0 0 -1 -0 -0 -1 -1 -1 -1
-0 0 1 0 2 -2 -2 -0 1 0 2 -1 2 -2 -2 -1 3 0 -0 1 1 0 1 1 4 2 0 0 -0 0 -1 -0 1 1 0 0 -1 0 0 -0 0 0 -0 -0 -0 -0 -0 -0 -1 -1 -1 -1 -1 -1
-0 -2 -1 -0 1 0 -0 -0 0 0 -0 0 4 -2 1 1 6 -1 -1 0 0 0 -0 -0 -0 1 1 1 1 2 2 1 1 0 0 2 3 2 -0 -1 -1 -0 -0 -1 -1 -1 -1 -1 -1 -1 -1 -1 -1 -1
Height
1209 1196 1174 1158 1149 1144 1153 1180 1214 1235 1254 1270 1286 1299 1313 1326 1340 1349 1363 1366 1376 1379 1393 1398 1405 1407 1410 1414 1419 1430 1439 1441 1444 1440 1433 1423 1425 1429 1429 1430 1434 1436 1438 1438 1435 1432 1432 1460 1460 1457 1463 1465 1468 1472
1218 1207 1190 1182 1178 1178 1191 1208 1226 1242 1257 1271 1284 1297 1312 1326 1337 1352 1360 1367 1372 1382 1392 1397 1400 1406 1411 1415 1418 1426 1425 1428 1431 1428 1422 1424 1432 1437 1429 1429 1439 1441 1440 1440 1445 1449 1462 1463 1461 1463 1465 1467 1472 1475
1232 1225 1217 1210 1209 1211 1218 1229 1240 1251 1262 1276 1288 1302 1318 1330 1340 1349 1362 1368 1376 1381 1397 1403 1407 1409 1411 1414 1419 1423 1425 1426 1430 1429 1431 1430 1436 1433 1428 1424 1434 1447 1450 1444 1452 1461 1464 1465 1465 1466 1469 1471 1474 1478
1247 1243 1241 1236 1237 1238 1244 1251 1258 1267 1278 1291 1302 1313 1324 1338 1348 1357 1363 1368 1371 1382 1394 1409 1411 1412 1415 1416 1419 1421 1422 1427 1428 1430 1434 1433 1434 1434 1435 1432 1430 1444 1448 1449 1457 1462 1465 1467 1468 1469 1471 1474 1477 1480
1263 1261 1258 1258 1259 1262 1265 1271 1278 1286 1295 1304 1314 1324 1334 1342 1349 1355 1361 1368 1373 1378 1390 1405 1412 1416 1417 1419 1421 1423 1425 1427 1427 1430 1435 1435 1438 1438 1438 1434 1432 1443 1445 1445 1441 1450 1455 1462 1468 1470 1472 1476 1479 1481
1278 1277 1277 1278 1279 1281 1285 1290 1295 1301 1309 1316 1324 1333 1341 1347 1353 1356 1364 1375 1375 1379 1391 1403 1416 1419 1421 1422 1424 1425 1427 1427 1426 1425 1434 1435 1437 1438 1435 1430 1444 1446 1447 1449 1450 1453 1456 1462 1467 1471 1474 1477 1480 1483
1292 1293 1293 1293 1295 1297 1299 1303 1308 1313 1319 1326 1333 1339 1345 1349 1353 1358 1366 1375 1379 1384 1390 1404 1415 1422 1423 1424 1426 1427 1428 1429 1427 1427 1431 1435 1436 1437 1436 1431 1444 1447 1449 1450 1452 1454 1461 1464 1467 1472 1476 1479 1482 1485
1303 1304 1305 1307 1309 1311 1313 1316 1320 1324 1329 1334 1339 1344 1350 1354 1359 1365 1372 1377 1381 1386 1391 1400 1414 1421 1423 1423 1425 1428 1428 1429 1430 1428 1431 1429 1435 1435 1435 1442 1445 1447 1450 1452 1454 1454 1457 1463 1468 1473 1477 1480 1483 1485
1314 1315 1317 1318 1320 1322 1324 1327 1330 1334 1338 1342 1347 1351 1355 1361 1369 1375 1378 1381 1384 1390 1394 1401 1406 1416 1421 1421 1424 1428 1427 1427 1431 1428 1428 1432 1426 1430 1436 1440 1444 1447 1449 1451 1454 1456 1459 1464 1467 1471 1476 1480 1482 1485
1324 1325 1326 1328 1330 1332 1334 1336 1339 1342 1345 1348 1352 1356 1366 1373 1374 1378 1385 1386 1390 1394 1399 1400 1404 1412 1417 1420 1423 1426 1426 1424 1425 1428 1431 1429 1425 1435 1437 1439 1443 1446 1448 1451 1454 1457 1460 1464 1467 1471 1476 1479 1482 1485
1334 1336 1337 1338 1339 1341 1343 1345 1347 1349 1351 1353 1359 1367 1374 1376 1380 1383 1388 1390 1394 1399 1406 1409 1411 1413 1419 1418 1421 1424 1424 1425 1422 1426 1429 1424 1422 1433 1438 1440 1443 1446 1449 1452 1455 1458 1461 1464 1468 1471 1475 1479 1482 1485
1343 1344 1345 1346 1348 1349 1351 1353 1355 1356 1356 1360 1365 1373 1377 1381 1384 1387 1392 1395 1391 1398 1405 1409 1410 1413 1419 1420 1422 1424 1424 1428 1425 1431 1431 1420 1431 1434 1438 1441 1444 1447 1450 1453 1455 1458 1461 1465 1469 1472 1476 1478 1481 1484
1351 1352 1353 1354 1354 1356 1358 1360 1361 1363 1363 1368 1372 1378 1382 1387 1387 1385 1395 1394 1397 1403 1406 1409 1413 1416 1420 1420 1424 1424 1427 1425 1429 1431 1419 1424 1431 1435 1438 1442 1445 1448 1451 1453 1456 1460 1463 1466 1469 1472 1474 1476 1479 1483
1359 1360 1361 1362 1363 1364 1365 1366 1366 1367 1369 1373 1378 1385 1386 1390 1392 1394 1391 1395 1402 1403 1406 1409 1413 1415 1420 1423 1426 1426 1431 1428 1427 1424 1418 1426 1432 1435 1438 1442 1445 1448 1451 1453 1456 1460 1463 1465 1468 1470 1473 1477 1480 1484
1367 1368 1368 1368 1369 1370 1371 1370 1370 1370 1374 1381 1385 1390 1395 1399 1399 1401 1402 1403 1405 1407 1410 1412 1415 1417 1421 1426 1424 1427 1431 1424 1418 1415 1425 1431 1433 1435 1439 1442 1445 1448 1451 1454 1456 1459 1462 1465 1468 1471 1474 1478 1482 1485
1373 1373 1373 1374 1375 1374 1374 1374 1374 1375 1383 1389 1394 1397 1400 1400 1404 1405 1407 1408 1409 1411 1412 1413 1417 1423 1426 1422 1423 1423 1417 1414 1421 1428 1431 1431 1433 1435 1438 1442 1445 1448 1451 1454 1457 1459 1462 1465 1468 1471 1475 1479 1482 1485
1378 1378 1379 1379 1378 1378 1378 1378 1379 1386 1392 1398 1404 1403 1402 1405 1408 1409 1410 1411 1412 1413 1415 1413 1417 1423 1425 1424 1422 1419 1421 1427 1430 1431 1431 1431 1433 1436 1439 1442 1445 1448 1451 1454 1457 1460 1463 1465 1468 1472 1475 1478 1481 1484
1383 1384 1384 1383 1383 1383 1382 1383 1390 1396 1402 1405 1406 1409 1409 1410 1412 1413 1414 1415 1415 1415 1417 1418 1419 1421 1419 1418 1417 1425 1428 1430 1430 1431 1431 1432 1434 1436 1439 1442 1445 1448 1451 1453 1456 1459 1462 1465 1468 1472 1475 1478 1481 1483
1388 1389 1388 1388 1387 1387 1390 1395 1399 1405 1410 1411 1412 1413 1414 1415 1417 1417 1417 1418 1418 1419 1419 1420 1420 1416 1420 1423 1427 1429 1429 1429 1431 1432 1432 1433 1435 1437 1439 1442 1445 1448 1450 1453 1456 1459 1462 1466 1469 1471 1474 1477 1480 1483
1394 1394 1393 1392 1391 1394 1400 1405 1406 1410 1413 1417 1417 1418 1418 1419 1420 1420 1420 1420 1421 1420 1420 1419 1421 1424 1425 1427 1428 1430 1430 1430 1431 1433 1435 1435 1436 1438 1440 1443 1445 1448 1451 1453 1456 1459 1462 1467 1470 1472 1474 1478 1481 1483
1399 1399 1398 1397 1397 1401 1407 1410 1413 1416 1418 1419 1421 1420 1421 1422 1422 1423 1423 1423 1424 1421 1421 1424 1426 1426 1427 1428 1429 1430 1430 1431 1432 1433 1434 1435 1436 1439 1440 1444 1445 1448 1451 1454 1456 1459 1462 1466 1468 1471 1473 1476 1479 1481
1403 1403 1402 1401 1404 1408 1413 1415 1417 1418 1420 1421 1422 1423 1423 1424 1425 1426 1426 1425 1424 1424 1425 1426 1427 1427 1428 1428 1429 1430 1430 1431 1431 1432 1433 1434 1436 1438 1440 1442 1444 1447 1450 1453 1455 1457 1461 1464 1467 1469 1472 1475 1477 1479
1407 1406 1406 1407 1409 1414 1421 1419 1419 1420 1421 1422 1423 1423 1425 1426 1427 1428 1427 1425 1425 1425 1426 1427 1426 1427 1428 1428 1429 1430 1430 1431 1433 1433 1433 1436 1437 1437 1439 1440 1443 1446 1448 1451 1454 1456 1460 1463 1465 1468 1470 1473 1475 1477
1411 1411 1412 1413 1416 1420 1421 1421 1421 1422 1423 1422 1422 1425 1426 1428 1429 1428 1425 1422 1425 1425 1426 1426 1427 1427 1428 1428 1430 1430 1430 1431 1432 1432 1433 1435 1436 1437 1438 1439 1441 1444 1447 1449 1452 1454 1457 1460 1463 1466 1469 1472 1474 1476
1417 1419 1419 1420 1421 1422 1422 1421 1423 1423 1423 1426 1426 1425 1428 1429 1427 1424 1423 1423 1425 1425 1425 1426 1427 1428 1429 1429 1430 1430 1431 1432 1433 1433 1433 1435 1436 1436 1437 1438 1440 1442 1444 1446 1449 1452 1455 1458 1462 1465 1468 1471 1473 1475
1418 1421 1421 1422 1423 1422 1423 1423 1424 1424 1424 1425 1426 1428 1429 1428 1426 1422 1420 1425 1425 1425 1425 1425 1426 1428 1429 1430 1430 1430 1430 1431 1431 1432 1433 1434 1435 1435 1436 1437 1439 1440 1442 1445 1448 1450 1453 1457 1460 1463 1467 1469 1471 1473
1420 1422 1423 1423 1424 1424 1425 1426 1426 1426 1426 1424 1424 1427 1427 1425 1422 1422 1425 1424 1425 1424 1424 1425 1426 1427 1428 1428 1428 1429 1429 1430 1430 1431 1431 1432 1433 1434 1436 1437 1438 1439 1440 1443 1446 1450 1452 1456 1459 1462 1464 1467 1469 1471
1423 1423 1423 1426 1425 1425 1425 1425 1425 1424 1423 1423 1425 1425 1424 1422 1421 1425 1424 1424 1424 1424 1424 1424 1425 1426 1427 1426 1427 1428 1428 1429 1429 1430 1430 1431 1432 1433 1434 1435 1437 1438 1441 1444 1447 1450 1453 1456 1458 1461 1463 1465 1467 1468
1424 1424 1425 1425 1425 1425 1425 1424 1422 1422 1424 1424 1423 1421 1423 1424 1423 1423 1423 1424 1424 1424 1424 1425 1425 1425 1426 1426 1426 1427 1428 1429 1430 1431 1432 1433 1433 1435 1435 1436 1438 1440 1442 1445 1448 1451 1453 1456 1458 1460 1462 1464 1465 1467
1423 1424 1424 1425 1425 1422 1422 1423 1423 1422 1423 1423 1423 1423 1423 1422 1421 1422 1422 1422 1422 1422 1423 1423 1424 1424 1425 1426 1426 1426 1428 1429 1430 1432 1433 1434 1434 1435 1436 1438 1440 1442 1444 1447 1449 1451 1454 1456 1458 1460 1462 1463 1465 1466
1423 1423 1424 1423 1422 1422 1422 1421 1421 1421 1421 1421 1421 1422 1421 1420 1418 1417 1417 1417 1418 1419 1420 1421 1422 1422 1423 1424 1425 1426 1427 1429 1430 1431 1432 1433 1434 1436 1438 1440 1442 1444 1447 1449 1451 1453 1454 1456 1458 1460 1462 1463 1464 1465
1422 1422 1422 1422 1421 1421 1420 1421 1421 1420 1419 1419 1418 1418 1418 1418 1418 1415 1413 1413 1414 1416 1417 1419 1420 1421 1421 1422 1423 1425 1426 1428 1429 1430 1431 1433 1434 1437 1439 1441 1444 1446 1448 1449 1451 1453 1456 1457 1459 1460 1462 1463 1463 1463
1421 1422 1422 1422 1421 1421 1421 1421 1419 1417 1417 1416 1415 1415 1416 1416 1415 1414 1412 1412 1413 1413 1414 1415 1416 1418 1419 1420 1422 1423 1425 1426 1428 1430 1432 1433 1435 1438 1440 1442 1445 1447 1449 1451 1453 1455 1456 1458 1459 1460 1461 1461 1462 1462